Temperature
16 16 16 17 14 12 14 14 14 15 15 15 15 16 15 15 16 16 15 16 16 16 16 15 15 15 16 16 16 16 16 16 16 16 16 16 16 15 15 15 15 15 15 15 15 15 15 15 15
16 16 16 16 12 13 13 13 14 15 15 15 15 15 15 15 15 15 15 15 15 16 15 15 15 15 15 15 15 15 15 15 16 16 15 15 15 15 15 15 15 15 15 15 15 15 15 15 15
15 16 16 11 11 12 14 14 13 14 15 15 14 14 14 14 14 15 15 15 15 15 15 15 15 15 15 15 15 15 15 15 15 15 15 15 15 15 15 15 15 15 15 15 15 14 14 14 14
15 15 14 11 12 12 13 14 13 13 14 14 14 13 14 14 14 14 15 15 15 15 15 15 15 15 15 15 15 15 15 15 15 15 15 15 15 15 15 15 15 14 14 14 14 14 14 14 14
15 14 11 11 12 12 12 12 13 13 13 13 13 13 13 13 14 14 14 15 15 15 15 15 15 15 15 15 15 15 15 15 15 15 15 15 15 15 15 14 14 14 14 14 14 14 14 14 14
14 11 10 11 12 12 12 12 13 12 12 13 13 12 13 13 14 14 14 14 14 15 14 14 15 15 15 14 14 14 15 15 15 15 15 14 14 14 14 14 14 14 14 14 14 14 14 13 13
12 9 10 11 11 12 12 12 12 11 11 12 13 12 12 13 13 13 14 14 14 14 14 14 14 14 14 14 14 14 14 14 14 14 14 14 14 14 14 14 14 14 14 14 14 14 13 13 13
13 9 10 10 11 12 11 12 12 12 11 12 13 11 12 13 13 13 13 13 14 14 14 14 14 14 14 14 14 14 14 14 14 14 14 14 14 14 14 14 14 14 13 13 13 13 13 13 13
12 9 9 10 10 11 11 11 11 12 11 11 11 12 12 12 13 13 13 13 13 13 13 13 14 14 14 14 14 14 14 14 14 14 14 14 14 14 13 13 13 13 13 13 13 13 13 13 13
11 9 10 10 10 10 10 11 11 11 10 10 11 11 12 12 12 13 13 13 13 13 13 13 13 13 13 13 13 13 13 13 13 13 13 13 13 13 13 13 13 13 13 13 13 13 13 13 12
9 9 10 10 10 10 10 10 10 10 9 10 11 11 12 12 12 12 12 13 13 13 13 13 13 13 13 13 13 13 13 13 13 13 13 13 13 13 13 13 13 12 12 12 12 12 12 12 12
8 8 9 10 10 10 10 10 9 9 10 11 11 11 11 11 12 12 12 12 12 12 13 13 13 13 13 13 13 13 13 13 13 13 13 13 13 13 13 12 12 12 12 12 12 12 12 12 12
8 8 9 9 10 10 9 9 9 9 10 10 11 11 11 11 11 11 12 12 12 12 12 12 12 12 12 12 13 12 13 13 13 13 13 12 12 12 12 12 12 12 12 12 12 12 12 12 12
8 8 9 9 9 9 9 8 8 9 10 10 10 10 10 10 11 11 11 11 11 12 12 12 12 12 12 12 12 12 12 12 12 12 12 12 12 12 12 12 12 12 12 12 11 11 11 11 11
9 8 8 8 8 8 9 8 7 9 9 9 9 9 9 10 10 10 10 11 11 11 11 11 11 11 11 12 12 12 12 12 12 12 12 12 12 12 12 12 12 12 11 11 11 11 11 11 11
8 7 7 8 8 8 8 8 8 9 9 8 8 8 9 9 9 10 10 10 10 10 11 11 11 11 11 11 11 11 11 12 11 11 11 11 11 11 11 11 11 11 11 11 11 11 11 11 11
7 7 7 7 7 7 7 7 7 8 8 7 7 8 8 8 9 9 9 10 10 10 10 10 10 11 11 11 11 11 11 11 11 11 11 11 11 11 11 11 11 11 11 11 11 11 10 10 10
6 6 6 7 7 7 7 6 7 7 7 7 7 7 7 8 8 9 9 9 9 9 10 10 10 10 10 10 10 10 10 10 10 10 10 10 10 10 10 10 11 11 10 10 10 10 10 10 10
6 6 6 7 7 7 6 6 7 7 6 6 6 6 7 7 8 8 8 8 9 9 9 9 10 10 10 10 10 10 10 10 10 10 10 10 10 10 10 10 10 10 10 10 10 10 9 9 9
6 6 6 6 6 7 6 6 6 6 6 6 6 6 7 7 7 8 8 8 8 8 9 9 9 9 9 9 9 9 9 9 9 9 9 9 9 9 9 10 10 9 9 9 9 9 9 9 9
6 6 6 6 6 6 6 6 6 6 6 6 6 6 6 7 7 7 7 8 8 8 8 8 9 9 9 9 9 9 9 9 9 9 9 9 9 9 9 9 9 9 9 9 9 9 9 8 8
6 6 6 6 5 5 5 5 6 5 5 5 5 5 6 6 6 7 7 7 7 7 8 8 8 8 8 8 8 8 8 8 8 8 8 8 8 8 8 8 8 8 8 8 8 8 8 8 8
5 6 5 5 5 4 4 4 5 5 5 5 5 5 5 6 6 6 6 7 7 7 7 7 7 8 8 7 8 8 8 8 8 8 8 8 8 8 8 8 8 8 8 8 8 7 7 7 7
5 5 5 4 4 5 4 4 5 4 5 5 5 5 5 5 5 6 6 6 6 6 6 7 7 7 7 7 7 7 7 7 7 7 7 7 7 7 7 7 7 7 7 7 7 7 7 7 7
5 4 4 4 3 4 4 4 5 5 4 4 4 4 5 5 5 5 5 5 5 6 6 6 6 6 6 6 6 7 7 7 7 7 7 7 7 7 7 6 6 6 6 6 6 6 6 6 6
4 5 4 5 4 4 3 4 4 4 4 4 4 4 5 5 5 5 5 5 5 5 5 5 5 6 6 6 6 6 6 6 6 6 6 6 6 6 6 6 6 6 5 5 5 5 6 6 6
4 4 4 3 3 3 3 3 4 4 3 3 3 4 4 4 4 4 4 4 4 5 5 5 5 5 5 5 5 5 6 6 5 5 5 5 5 5 5 5 5 5 5 5 5 5 5 5 5
4 3 3 3 4 4 4 4 4 4 4 3 2 3 3 4 4 4 4 4 4 4 4 4 4 5 5 5 5 5 5 5 5 4 5 5 5 5 5 5 4 4 4 4 4 4 4 4 4
3 3 3 2 2 3 4 5 4 3 3 2 2 3 3 3 4 4 4 3 3 4 4 4 4 4 4 4 4 4 4 4 4 4 4 4 4 4 4 4 4 4 4 4 4 4 4 4 4
3 3 2 3 3 1 2 4 4 2 2 2 2 3 3 3 3 3 3 3 3 3 4 4 4 4 4 4 3 3 3 3 3 3 3 4 3 3 4 3 3 3 3 3 3 3 3 3 3
Wind_Speed
10 6 2 4 5 4 3 4 2 1 1 1 1 2 4 3 2 2 1 2 3 4 6 9 10 11 11 11 11 11 12 12 12 12 12 12 12 12 12 12 12 12 13 13 13 13 14 14 14
4 3 5 5 4 2 5 4 3 2 1 1 3 2 3 1 2 1 1 1 3 5 7 8 10 11 12 12 11 11 11 12 12 12 12 12 12 11 12 11 11 12 12 12 12 13 13 13 13
2 4 4 4 4 6 4 2 3 1 1 2 2 3 2 1 2 1 1 1 3 5 6 8 10 10 11 12 11 11 12 12 12 11 11 11 11 11 11 11 11 11 11 12 11 12 12 12 12
3 5 5 4 4 4 3 1 1 0 2 3 2 2 1 2 2 1 1 3 4 4 6 9 10 10 11 12 11 11 12 12 12 11 11 11 11 11 11 11 10 10 10 11 11 11 11 11 11
4 4 4 1 3 3 2 2 1 1 1 2 2 1 1 3 4 3 3 4 4 3 5 8 10 10 10 11 11 11 11 11 11 11 10 10 10 10 10 10 10 10 10 10 10 11 11 11 11
4 4 4 3 4 3 2 2 0 1 1 1 2 1 1 2 5 3 4 4 3 3 4 6 10 11 10 10 10 10 11 11 10 10 10 9 10 10 10 9 9 9 9 9 9 10 10 10 10
5 4 4 4 2 2 2 1 1 1 1 1 1 2 1 2 4 3 4 5 4 4 4 4 6 9 10 9 9 10 10 10 10 9 9 9 10 10 9 9 9 8 8 8 8 9 9 9 9
4 5 3 2 3 3 2 1 1 1 2 1 2 3 2 3 3 3 4 5 5 4 3 3 4 6 7 8 9 9 9 9 9 9 9 9 9 9 8 8 8 8 8 8 8 8 8 8 8
4 4 3 4 5 3 1 1 2 2 2 1 0 1 2 0 2 5 4 4 3 3 3 3 4 4 5 6 7 8 8 8 8 7 8 8 7 7 7 7 7 7 7 7 7 7 7 8 8
4 3 5 3 3 2 1 0 1 2 2 1 1 2 2 3 4 4 2 1 1 2 2 2 2 3 4 5 5 5 6 6 6 6 6 6 6 6 6 6 6 6 6 6 6 6 6 7 6
3 4 2 0 1 1 1 1 0 3 1 3 3 1 1 2 2 2 1 0 1 1 1 1 2 3 3 3 4 4 4 5 5 6 5 6 5 5 5 4 5 5 5 5 5 5 5 6 5
2 1 1 1 1 0 1 0 0 2 4 2 2 2 3 3 2 2 2 1 1 1 1 1 2 2 2 3 3 3 3 3 3 4 5 5 4 3 3 3 3 4 4 4 4 4 4 5 5
1 1 1 0 1 0 1 1 2 3 4 3 1 2 3 3 3 2 2 1 0 1 1 1 1 1 2 3 2 3 3 3 4 4 4 5 3 3 2 3 3 3 4 4 3 3 3 3 3
1 1 2 2 1 1 1 3 1 5 2 0 1 1 2 3 3 1 0 1 1 1 1 1 1 1 2 2 2 2 2 3 4 4 4 4 4 3 3 3 3 2 3 3 3 3 3 2 3
1 2 4 2 1 1 1 4 4 4 1 1 1 1 2 2 2 2 3 3 3 2 1 0 0 1 2 2 2 2 3 3 3 3 3 4 3 4 3 3 2 2 3 3 3 3 3 2 1
2 2 2 3 0 1 3 6 4 2 2 2 2 2 2 2 3 3 3 2 2 1 1 0 1 1 1 2 2 2 3 3 2 3 3 3 3 3 3 2 2 2 3 3 2 2 1 1 1
2 1 3 4 1 0 2 6 5 1 2 3 3 3 3 3 3 3 2 2 2 2 2 1 1 1 1 1 2 3 4 4 3 3 2 2 2 3 3 2 1 2 2 1 2 1 1 1 0
3 3 3 4 2 0 3 7 8 3 1 4 4 3 3 4 4 3 2 2 2 2 2 2 1 1 1 1 1 2 3 2 3 3 2 2 2 2 2 2 2 2 2 1 0 1 1 1 1
3 3 4 5 2 2 5 8 9 6 3 5 5 4 4 5 4 3 2 2 1 1 2 2 2 1 1 1 1 1 1 1 1 2 3 2 2 2 2 2 1 1 1 1 0 1 1 0 0
2 2 4 5 2 2 5 9 8 6 5 6 6 5 5 4 3 2 2 1 2 3 3 2 2 2 2 2 2 1 2 1 1 2 3 3 2 1 1 2 1 1 1 1 1 1 1 0 1
3 5 5 4 4 2 4 7 6 4 3 4 4 5 4 4 4 3 2 2 2 2 3 2 2 2 2 2 2 2 2 2 1 2 1 3 2 1 2 1 1 1 1 1 2 2 2 1 1
5 4 4 3 2 4 1 5 7 5 5 5 5 4 4 4 3 2 2 1 2 2 2 2 2 2 2 2 3 3 2 1 1 1 0 1 2 1 1 0 0 1 1 1 2 2 1 2 1
4 2 2 2 2 3 1 3 8 2 6 7 6 4 4 3 3 2 2 1 1 1 1 1 2 2 2 2 3 3 2 2 1 1 1 1 1 2 2 2 1 1 2 2 2 1 1 2 2
2 3 3 3 2 3 4 4 7 3 5 6 4 3 3 2 1 0 0 1 2 2 1 1 2 2 2 2 2 3 3 2 1 1 1 1 1 1 1 1 1 1 2 2 2 3 3 3 3
2 3 2 3 2 5 2 4 8 5 4 4 4 4 2 1 1 0 1 1 1 1 1 1 1 1 1 1 1 2 3 3 3 3 3 2 2 2 2 2 2 2 2 2 2 2 3 3 3
3 5 5 4 5 5 1 6 7 2 3 4 3 2 1 1 1 1 1 1 0 0 1 1 1 1 1 0 1 2 2 2 2 2 2 3 3 3 3 3 2 3 2 2 2 2 3 3 3
4 3 3 4 1 3 5 6 7 2 3 4 2 1 0 0 0 1 1 0 1 1 1 1 1 0 1 1 1 2 1 1 2 2 2 2 3 3 2 3 3 3 3 3 3 3 3 3 4
3 5 3 3 2 4 6 5 4 4 5 4 3 2 2 1 1 1 1 1 1 1 1 1 1 1 1 1 2 2 2 2 2 2 2 3 3 3 3 3 3 3 3 3 3 3 3 3 4
3 3 3 3 3 4 4 6 4 4 3 3 4 3 2 2 2 2 2 1 1 1 1 1 1 1 1 2 2 2 2 2 2 2 3 3 3 3 3 3 4 4 4 4 4 4 3 4 4
2 4 5 3 4 4 4 7 2 1 1 2 4 3 2 2 2 1 1 1 1 1 2 2 2 2 3 2 2 2 2 2 2 3 3 3 3 3 3 3 4 4 4 4 5 5 4 5 5
Wind_Direction
343 352 46 55 58 59 223 239 229 258 258 329 356 129 141 140 160 187 354 111 116 139 147 148 144 140 136 132 127 121 119 116 114 112 110 109 109 108 105 101 99 98 97 98 98 97 96 95 93
345 8 51 62 102 176 253 241 231 231 207 97 38 61 84 67 15 49 25 8 128 138 142 145 143 140 137 134 131 129 124 120 117 115 113 111 111 110 106 103 101 99 98 99 100 100 99 97 95
7 46 80 84 136 188 217 220 215 291 12 77 52 41 87 15 350 306 310 121 116 126 139 147 144 141 140 136 134 134 130 124 119 117 116 115 113 111 109 106 104 101 99 100 102 102 101 99 98
62 48 57 89 200 219 223 247 209 69 33 44 82 45 25 11 315 295 31 112 112 116 130 145 145 142 141 137 135 135 132 128 123 120 119 118 115 112 109 108 108 106 104 102 104 104 102 102 101
58 78 76 78 240 255 260 292 262 101 31 24 90 100 346 2 11 48 76 105 114 111 120 143 144 138 138 138 137 135 131 129 126 122 120 120 116 113 112 110 110 111 110 108 107 107 106 104 103
60 74 111 210 247 280 289 292 157 90 88 28 97 136 245 12 24 27 63 82 99 109 107 137 145 140 138 135 137 136 133 129 127 124 121 120 118 116 114 112 112 113 114 113 110 111 111 109 107
108 109 163 189 227 268 289 309 149 141 121 249 176 145 270 349 358 26 60 64 70 83 86 101 137 143 142 140 137 133 132 128 124 124 123 121 120 118 117 117 116 115 116 115 112 114 112 111 113
121 114 135 188 202 249 304 5 32 145 211 281 130 150 241 279 343 53 70 61 60 62 72 77 106 128 134 139 141 135 129 127 124 122 124 123 124 125 121 119 120 120 119 117 113 116 115 113 112
92 94 183 204 196 238 309 56 358 10 99 46 59 210 270 194 78 69 63 47 47 48 41 63 85 104 123 133 141 138 133 128 122 121 123 123 122 125 125 120 121 120 120 118 117 118 119 116 111
90 159 211 206 188 202 224 80 325 45 36 341 333 354 28 91 90 86 67 44 25 28 14 38 77 86 113 133 132 129 124 121 114 113 115 119 121 123 126 128 125 122 120 122 119 118 117 111 104
123 178 204 261 246 202 191 293 149 139 242 229 224 256 105 107 110 126 129 332 306 318 8 21 64 82 95 107 116 114 115 112 110 112 114 115 113 116 117 118 122 120 117 114 114 107 113 116 113
125 236 204 291 336 141 219 230 317 198 229 261 235 183 164 155 176 191 187 231 298 320 335 3 52 83 81 89 106 110 108 110 113 120 120 117 111 109 115 112 113 115 120 114 113 111 115 120 125
141 258 332 333 33 46 104 241 248 267 280 313 36 120 169 181 201 220 208 196 285 319 320 343 39 89 97 83 100 108 111 121 125 120 121 124 124 132 120 117 116 119 123 126 119 117 120 120 121
196 312 309 319 329 338 207 279 244 270 283 21 93 172 213 207 205 198 241 264 266 261 300 2 28 67 96 115 112 122 112 127 125 123 127 128 129 132 134 128 119 120 132 138 138 136 129 129 128
62 12 341 325 292 269 124 300 241 254 180 190 226 225 240 238 222 219 226 226 229 224 203 111 185 73 95 109 102 116 105 107 113 127 136 134 129 134 134 137 133 131 143 139 127 120 115 125 129
48 37 318 309 277 241 143 263 277 256 163 223 248 263 262 258 244 238 242 246 238 207 175 165 127 93 118 115 91 100 96 92 92 120 135 138 132 130 129 136 144 134 134 128 144 139 124 140 176
36 279 267 299 302 137 179 252 275 300 187 247 257 260 263 278 285 267 250 239 238 208 183 149 123 147 167 129 91 82 91 88 76 87 102 117 130 135 129 128 114 127 116 124 166 148 141 158 200
226 227 252 262 293 242 244 260 276 287 237 259 261 265 267 265 267 267 257 250 245 209 168 144 98 102 124 116 96 78 84 78 66 69 80 102 107 113 120 112 101 111 110 88 109 139 122 151 187
176 193 256 267 285 251 251 265 273 271 273 273 272 263 258 259 274 289 277 246 211 158 147 145 108 103 108 126 147 159 145 127 96 55 53 79 84 99 103 92 110 122 153 164 145 80 95 49 62
183 238 266 291 316 256 273 275 271 263 249 247 253 259 256 265 291 290 276 203 189 177 172 159 149 149 151 167 172 172 149 130 108 43 39 43 61 79 111 99 129 114 150 131 139 93 104 84 115
236 219 239 265 324 317 305 298 272 271 248 262 260 261 257 241 242 247 224 195 185 179 186 176 165 150 151 132 111 79 83 81 57 27 17 11 27 58 59 75 138 144 152 189 195 168 150 189 256
242 225 224 249 305 297 11 295 288 279 289 283 278 274 261 251 244 237 218 205 202 207 196 168 152 135 144 140 139 128 138 157 193 204 250 348 11 26 40 31 190 191 192 206 219 186 177 162 202
221 213 191 212 209 300 299 243 287 306 286 281 275 268 263 246 216 216 211 219 210 188 179 172 145 132 140 148 157 162 171 187 176 146 184 239 337 359 4 354 316 233 216 212 211 214 202 191 194
166 67 60 56 86 275 230 200 283 253 257 289 284 269 256 244 222 222 16 45 31 45 75 118 150 149 150 155 170 184 189 184 172 184 209 236 250 280 323 328 304 270 245 227 219 215 219 217 204
106 98 34 353 330 253 204 212 255 261 265 276 280 268 253 220 180 130 72 67 50 45 45 53 108 116 141 153 194 220 211 199 202 209 215 227 238 262 261 276 270 268 259 242 223 216 231 228 221
185 156 165 205 237 278 255 237 255 266 295 299 283 254 202 177 154 183 213 192 194 3 38 53 65 41 37 348 254 260 227 212 220 227 227 230 236 241 254 262 265 269 263 250 231 228 228 231 236
158 187 162 140 171 277 266 279 298 306 332 338 334 5 321 234 177 232 256 234 222 248 259 237 234 309 329 311 306 294 273 242 237 236 238 237 238 241 248 256 253 255 253 246 230 230 236 230 227
159 148 122 146 180 258 283 271 262 299 305 322 324 307 309 328 327 311 286 271 263 250 261 274 258 258 287 293 289 299 303 290 262 242 248 251 254 253 245 250 251 249 246 244 238 235 237 233 234
143 147 151 154 172 184 262 270 231 229 266 296 303 289 287 285 277 275 282 282 282 298 288 283 285 292 289 285 286 291 288 286 275 261 253 253 256 252 242 243 248 249 248 242 235 236 228 230 240
192 185 167 184 226 198 215 266 284 206 279 298 302 309 291 279 278 265 271 296 303 292 283 278 280 273 267 269 271 268 272 274 271 272 268 262 259 260 253 250 250 256 252 242 236 239 235 230 234
Height
1491 1492 1493 1495 1500 1511 1511 1505 1502 1501 1500 1500 1500 1500 1501 1503 1507 1510 1506 1504 1506 1508 1510 1511 1513 1515 1516 1518 1519 1520 1521 1522 1523 1524 1525 1525 1526 1527 1528 1529 1529 1530 1531 1531 1532 1533 1533 1534 1534
1491 1492 1495 1496 1506 1515 1511 1504 1502 1500 1499 1499 1499 1500 1501 1502 1504 1504 1504 1504 1506 1508 1510 1511 1513 1515 1516 1518 1519 1520 1521 1523 1523 1524 1525 1526 1527 1528 1528 1529 1530 1531 1531 1532 1533 1533 1534 1534 1535
1491 1493 1495 1499 1508 1511 1505 1500 1500 1499 1499 1499 1500 1500 1502 1503 1503 1503 1504 1505 1506 1508 1510 1511 1513 1515 1516 1517 1519 1520 1522 1523 1524 1525 1525 1526 1527 1528 1529 1530 1530 1531 1532 1533 1533 1534 1534 1535 1536
1492 1494 1496 1504 1506 1504 1501 1499 1498 1498 1499 1499 1500 1501 1502 1504 1504 1504 1504 1505 1506 1508 1510 1511 1513 1515 1516 1517 1519 1520 1522 1523 1524 1525 1526 1527 1528 1528 1529 1530 1531 1531 1532 1533 1534 1534 1535 1535 1536
1492 1493 1502 1508 1505 1501 1499 1498 1498 1498 1499 1500 1500 1501 1502 1504 1503 1504 1504 1505 1507 1508 1510 1512 1513 1515 1516 1517 1519 1520 1522 1523 1524 1525 1526 1527 1528 1529 1529 1530 1531 1531 1532 1533 1534 1535 1535 1536 1536
1492 1494 1507 1510 1504 1501 1499 1498 1498 1498 1499 1500 1500 1501 1502 1503 1503 1503 1504 1505 1507 1508 1510 1512 1513 1514 1516 1517 1519 1520 1522 1523 1524 1525 1526 1527 1528 1528 1529 1530 1531 1531 1532 1533 1534 1535 1535 1536 1537
1493 1499 1505 1505 1504 1501 1499 1497 1498 1498 1499 1500 1500 1501 1501 1502 1503 1503 1504 1505 1507 1508 1509 1511 1513 1514 1516 1517 1519 1520 1522 1523 1524 1525 1526 1527 1527 1528 1529 1530 1530 1531 1532 1533 1534 1534 1535 1536 1537
1492 1498 1503 1505 1504 1501 1499 1498 1498 1498 1499 1500 1500 1501 1501 1501 1502 1503 1504 1505 1506 1508 1509 1510 1512 1513 1515 1517 1518 1520 1521 1522 1523 1524 1525 1526 1527 1528 1529 1529 1530 1531 1532 1532 1533 1534 1535 1536 1536
1492 1501 1504 1503 1502 1499 1498 1498 1498 1498 1498 1499 1499 1500 1500 1500 1501 1502 1504 1505 1505 1507 1508 1509 1510 1512 1514 1516 1517 1519 1520 1522 1523 1524 1525 1525 1526 1527 1528 1529 1529 1530 1531 1532 1533 1533 1534 1535 1536
1492 1501 1499 1497 1497 1497 1497 1497 1498 1498 1498 1498 1498 1499 1499 1499 1500 1501 1502 1503 1504 1505 1506 1508 1509 1511 1513 1515 1516 1518 1519 1520 1522 1522 1523 1524 1525 1526 1527 1528 1529 1529 1530 1531 1532 1533 1533 1534 1535
1493 1497 1496 1496 1496 1496 1496 1497 1497 1497 1498 1497 1497 1497 1497 1498 1499 1500 1500 1502 1503 1504 1505 1506 1508 1510 1511 1513 1515 1516 1518 1519 1520 1521 1522 1523 1524 1525 1526 1526 1527 1528 1529 1530 1531 1532 1532 1533 1534
1495 1495 1495 1495 1495 1495 1496 1496 1497 1496 1496 1496 1496 1496 1496 1496 1497 1498 1499 1500 1502 1503 1503 1504 1506 1508 1509 1511 1513 1514 1516 1517 1518 1519 1520 1521 1522 1523 1524 1525 1526 1526 1527 1528 1529 1530 1531 1532 1532
1495 1495 1495 1495 1495 1495 1495 1496 1496 1495 1495 1495 1495 1494 1494 1494 1495 1496 1497 1498 1500 1501 1501 1502 1505 1506 1507 1509 1511 1512 1514 1515 1517 1517 1518 1519 1520 1521 1522 1523 1524 1525 1525 1526 1527 1528 1529 1530 1531
1495 1495 1495 1495 1494 1495 1495 1495 1496 1493 1494 1493 1493 1492 1492 1493 1493 1494 1495 1496 1497 1498 1499 1501 1502 1503 1505 1507 1508 1510 1512 1513 1514 1515 1516 1517 1518 1519 1520 1521 1522 1523 1524 1524 1525 1526 1527 1528 1529
1495 1496 1495 1494 1494 1495 1496 1495 1493 1491 1492 1491 1491 1491 1491 1491 1492 1492 1493 1494 1495 1496 1497 1499 1500 1501 1503 1504 1506 1507 1509 1511 1512 1513 1514 1515 1516 1517 1518 1519 1520 1520 1521 1522 1523 1524 1525 1526 1526
1496 1499 1500 1495 1494 1494 1498 1496 1491 1490 1490 1489 1489 1489 1489 1489 1490 1490 1491 1492 1493 1494 1495 1497 1498 1499 1500 1502 1503 1505 1506 1508 1510 1511 1512 1513 1514 1515 1516 1517 1517 1518 1519 1519 1520 1521 1522 1523 1524
1501 1504 1501 1498 1495 1494 1496 1494 1489 1489 1488 1488 1487 1487 1487 1487 1487 1488 1489 1490 1491 1492 1493 1495 1496 1498 1499 1500 1501 1503 1504 1506 1507 1508 1509 1510 1511 1513 1514 1514 1515 1516 1516 1517 1517 1518 1519 1519 1520
1503 1504 1502 1499 1495 1495 1496 1493 1488 1487 1487 1486 1485 1485 1484 1484 1484 1485 1486 1487 1489 1490 1491 1492 1494 1495 1497 1498 1499 1500 1502 1503 1505 1506 1507 1508 1509 1510 1511 1511 1512 1513 1513 1514 1514 1515 1516 1516 1517
1498 1501 1501 1498 1495 1496 1494 1492 1487 1485 1485 1484 1483 1482 1482 1481 1482 1483 1484 1484 1485 1487 1488 1489 1491 1492 1494 1495 1496 1497 1499 1500 1502 1503 1504 1505 1506 1507 1508 1508 1509 1510 1510 1510 1511 1512 1513 1513 1514
1498 1500 1500 1497 1495 1495 1494 1490 1484 1482 1482 1481 1479 1478 1478 1478 1478 1479 1480 1481 1482 1484 1485 1487 1488 1490 1491 1493 1494 1495 1497 1498 1499 1500 1501 1502 1503 1504 1504 1505 1506 1506 1507 1507 1507 1508 1509 1510 1511
1497 1499 1498 1499 1496 1495 1495 1488 1482 1478 1478 1477 1476 1475 1475 1475 1475 1476 1477 1478 1480 1481 1482 1484 1485 1487 1488 1490 1492 1493 1494 1495 1496 1497 1498 1499 1500 1501 1502 1502 1503 1503 1504 1504 1504 1505 1506 1507 1508
1496 1494 1495 1497 1500 1500 1498 1496 1481 1478 1476 1474 1473 1472 1472 1472 1473 1474 1475 1476 1477 1479 1480 1482 1483 1484 1486 1488 1489 1489 1490 1491 1492 1493 1495 1496 1497 1498 1498 1499 1499 1500 1500 1500 1501 1502 1503 1504 1504
1494 1492 1495 1496 1499 1502 1500 1501 1484 1479 1476 1472 1471 1470 1470 1470 1471 1472 1473 1474 1475 1476 1478 1479 1481 1482 1483 1485 1486 1487 1488 1489 1490 1491 1492 1493 1494 1494 1494 1495 1495 1496 1496 1497 1498 1499 1499 1500 1501
1492 1494 1496 1500 1502 1502 1498 1500 1486 1481 1474 1470 1469 1468 1468 1469 1470 1470 1471 1472 1473 1475 1476 1477 1478 1479 1480 1482 1483 1484 1485 1485 1486 1487 1488 1489 1490 1490 1491 1491 1492 1492 1493 1493 1494 1495 1496 1497 1497
1493 1498 1505 1505 1509 1501 1496 1496 1484 1473 1471 1469 1468 1467 1467 1468 1468 1469 1469 1470 1471 1473 1474 1475 1475 1476 1478 1479 1480 1481 1481 1481 1482 1483 1483 1484 1485 1485 1486 1488 1488 1489 1489 1490 1491 1491 1492 1492 1493
1493 1495 1503 1505 1506 1501 1497 1493 1479 1472 1470 1468 1467 1466 1467 1467 1468 1468 1469 1470 1470 1471 1472 1473 1473 1473 1474 1475 1477 1477 1478 1478 1478 1479 1479 1480 1480 1481 1482 1483 1484 1485 1485 1486 1487 1487 1487 1488 1489
1492 1495 1495 1503 1507 1505 1495 1489 1477 1470 1468 1466 1466 1466 1466 1466 1467 1468 1468 1469 1469 1469 1470 1471 1471 1471 1471 1472 1473 1474 1474 1474 1474 1475 1476 1476 1476 1477 1478 1478 1479 1480 1481 1481 1482 1482 1483 1484 1485
1490 1493 1499 1501 1502 1498 1492 1489 1479 1471 1468 1467 1466 1466 1465 1466 1466 1467 1468 1468 1468 1469 1469 1469 1469 1468 1469 1469 1470 1470 1470 1471 1471 1471 1471 1472 1472 1473 1473 1474 1475 1475 1476 1476 1477 1478 1478 1479 1480
1492 1494 1496 1500 1501 1501 1495 1482 1472 1470 1468 1468 1466 1465 1465 1465 1466 1466 1467 1467 1467 1467 1467 1466 1466 1466 1466 1466 1466 1467 1467 1467 1467 1467 1467 1468 1468 1469 1469 1469 1470 1470 1471 1471 1472 1473 1473 1474 1475
1489 1490 1494 1496 1498 1502 1500 1484 1468 1468 1467 1467 1465 1464 1464 1464 1464 1465 1465 1465 1465 1465 1465 1464 1464 1464 1464 1464 1464 1464 1463 1463 1463 1463 1463 1464 1464 1464 1465 1465 1465 1466 1466 1467 1468 1468 1469 1469 1470